Tracking 25620 objects as of 18-May-2022
HD Live streaming from Space Station
objects crossing your sky now

USA 118

Track USA 118 now!
USA 118 is classified as:


NORAD ID: 23855
Int'l Code: 1996-026A
Perigee: 34,216.5 km
Apogee: 37,375.0 km
Inclination: 8.7 °
Period: 1,436.2 minutes
Semi major axis: 42166 km
RCS: Unknown
Launch date: April 24, 1996
Source: United States (US)
Launch site: AIR FORCE EASTERN TEST RANGE (AFETR)

In the $1 billion range; ELINT; signals intelligence.
aabbcc
Your satellite tracking list
Your tracking list is empty




NASA's NSSDC Master Catalog

Two Line Element Set (TLE):
1 23855U 96026A   22059.40839117 0.00000000  00000-0  00000-0 0    00
2 23855   8.6765 353.7897 0374523 281.3184  79.1787  1.00264601    09
Source of the keplerian elements: McCants